Find Starlink 32584

NORAD ID: 62179 Int'l Des: 2024-225 Owner: SPXS Country: US Constellation: starlink operational
LEOCIRCULAR

現在のビュー

3D地球を読み込み中...

About Starlink 32584

Starlink 32584 (NORAD 62179) is a starlink constellation satellite (v2 mini) launched Nov 30, 2024 by SPXS of US. It operates in LEO, CIRCULAR orbit with a mass of 730.00 kg.

次回通過

Passes for default location (London). Set your location on the main map for personalized predictions.

高度履歴

Loading altitude history...

軌道要素

1 62179U 24225S 26265.91668981 .00005112 00000-0 38237-3 0 9994
2 62179 69.9993 27.0731 0003647 294.6447 248.1481 15.03363960 5771
Epoch: Sep 22, 2026 • Age: 6 hours

現在のステータス

高度 560.6 km
遠地点 / 近地点 N/A
速度 7.58 km/s
衛星直下点 22.09°N, 131.86°E
打ち上げ日 Nov 30, 2024
運用期間 1.8 years
タイプ internet

技術仕様

分類 Payload
質量 730.00 kg
乾燥質量 700.00 kg
長さ 0.30 m
スパン 29.00 m
形状 ? Box + pan
製造者 SPXS
バスタイプ Starlink V2M
フェーズステータス In Orbit
所有者/国 SPXS/US

Most Searched